Time,TemperatureF,DewpointF,PressureIn,WindDirection,WindDirectionDegrees,WindSpeedMPH,WindSpeedGustMPH,Humidity,HourlyPrecipIn,Conditions,Clouds,dailyrainin,SoftwareType,DateUTC
2013-03-24 00:04:00,52.5,49.0,29.79,NW,309,3.0,14.0,89,0.00,,,0.00,weatherlink.com 1.10,2013-03-24 05:04:00,
2013-03-24 00:19:00,52.4,50.0,29.82,West,281,4.0,10.0,90,0.00,,,0.00,weatherlink.com 1.10,2013-03-24 05:19:00,
2013-03-24 00:34:00,52.6,50.0,29.81,WNW,297,5.0,9.0,89,0.00,,,0.00,weatherlink.com 1.10,2013-03-24 05:34:00,
2013-03-24 00:49:00,52.6,50.0,29.82,WSW,255,2.0,14.0,89,0.00,,,0.00,weatherlink.com 1.10,2013-03-24 05:49:00,
2013-03-24 01:04:00,52.4,49.0,29.83,NW,307,5.0,12.0,89,0.00,,,0.00,weatherlink.com 1.10,2013-03-24 06:04:00,
2013-03-24 01:19:00,51.7,49.0,29.82,NW,308,5.0,14.0,89,0.00,,,0.00,weatherlink.com 1.10,2013-03-24 06:19:00,
2013-03-24 01:34:00,51.5,48.0,29.84,NNE,32,5.0,22.0,88,0.00,,,0.00,weatherlink.com 1.10,2013-03-24 06:34:00,
2013-03-24 01:49:00,51.5,48.0,29.86,NW,312,5.0,15.0,87,0.00,,,0.00,weatherlink.com 1.10,2013-03-24 06:49:00,
2013-03-24 02:04:00,51.0,46.0,29.86,West,281,2.0,13.0,84,0.00,,,0.00,weatherlink.com 1.10,2013-03-24 07:04:00,
2013-03-24 02:19:00,50.5,46.0,29.87,WNW,301,4.0,10.0,84,0.00,,,0.00,weatherlink.com 1.10,2013-03-24 07:19:00,
2013-03-24 02:34:00,50.2,46.0,29.88,WNW,294,5.0,14.0,84,0.00,,,0.00,weatherlink.com 1.10,2013-03-24 07:34:00,
2013-03-24 03:04:00,49.7,45.0,29.89,NW,322,4.0,13.0,83,0.00,,,0.00,weatherlink.com 1.10,2013-03-24 08:04:00,
2013-03-24 03:19:00,48.9,43.0,29.89,NW,307,5.0,13.0,81,0.00,,,0.00,weatherlink.com 1.10,2013-03-24 08:19:00,
2013-03-24 03:34:00,48.3,43.0,29.91,West,277,9.0,13.0,82,0.00,,,0.00,weatherlink.com 1.10,2013-03-24 08:34:00,
2013-03-24 03:50:00,47.2,42.0,29.92,WNW,302,4.0,13.0,82,0.00,,,0.00,weatherlink.com 1.10,2013-03-24 08:50:00,
2013-03-24 04:05:00,46.3,40.0,29.93,NW,316,3.0,15.0,80,0.00,,,0.00,weatherlink.com 1.10,2013-03-24 09:05:00,
2013-03-24 04:20:00,44.9,38.0,29.93,WNW,290,6.0,21.0,77,0.00,,,0.00,weatherlink.com 1.10,2013-03-24 09:20:00,
2013-03-24 04:35:00,44.3,38.0,29.94,WNW,289,12.0,17.0,79,0.00,,,0.00,weatherlink.com 1.10,2013-03-24 09:35:00,
2013-03-24 04:50:00,44.1,37.0,29.95,NW,307,8.0,13.0,77,0.00,,,0.00,weatherlink.com 1.10,2013-03-24 09:50:00,
2013-03-24 05:05:00,43.3,37.0,29.95,NW,317,4.0,12.0,77,0.00,,,0.00,weatherlink.com 1.10,2013-03-24 10:05:00,
2013-03-24 05:20:00,42.8,36.0,29.95,NW,312,6.0,11.0,78,0.00,,,0.00,weatherlink.com 1.10,2013-03-24 10:20:00,
2013-03-24 05:35:00,42.6,36.0,29.97,NW,312,5.0,9.0,78,0.00,,,0.00,weatherlink.com 1.10,2013-03-24 10:35:00,
2013-03-24 05:50:00,42.7,36.0,29.98,WNW,294,6.0,11.0,77,0.00,,,0.00,weatherlink.com 1.10,2013-03-24 10:50:00,
2013-03-24 06:05:00,41.7,34.0,29.99,NW,309,8.0,17.0,75,0.00,,,0.00,weatherlink.com 1.10,2013-03-24 11:05:00,
2013-03-24 06:20:00,40.9,34.0,30.01,WNW,285,8.0,12.0,75,0.00,,,0.00,weatherlink.com 1.10,2013-03-24 11:20:00,
2013-03-24 06:35:00,40.4,33.0,30.02,NW,307,5.0,11.0,76,0.00,,,0.00,weatherlink.com 1.10,2013-03-24 11:35:00,
2013-03-24 06:50:00,39.7,33.0,30.03,West,273,3.0,13.0,76,0.00,,,0.00,weatherlink.com 1.10,2013-03-24 11:50:00,
2013-03-24 07:05:00,39.6,33.0,30.04,NW,316,2.0,9.0,77,0.00,,,0.00,weatherlink.com 1.10,2013-03-24 12:05:00,
2013-03-24 07:20:00,39.6,31.0,30.04,NNW,329,4.0,16.0,71,0.00,,,0.00,weatherlink.com 1.10,2013-03-24 12:20:00,
2013-03-24 07:35:00,39.9,32.0,30.04,North,355,10.0,11.0,73,0.00,,,0.00,weatherlink.com 1.10,2013-03-24 12:35:00,
2013-03-24 07:50:00,40.0,32.0,30.05,WNW,297,9.0,14.0,72,0.00,,,0.00,weatherlink.com 1.10,2013-03-24 12:50:00,
2013-03-24 08:05:00,40.1,30.0,30.05,WNW,293,5.0,16.0,68,0.00,,,0.00,weatherlink.com 1.10,2013-03-24 13:05:00,
2013-03-24 08:20:00,40.4,30.0,30.06,North,357,8.0,13.0,67,0.00,,,0.00,weatherlink.com 1.10,2013-03-24 13:20:00,
2013-03-24 08:35:00,41.0,30.0,30.07,NW,313,4.0,13.0,66,0.00,,,0.00,weatherlink.com 1.10,2013-03-24 13:35:00,
2013-03-24 08:51:00,41.6,31.0,30.09,NW,314,6.0,17.0,65,0.00,,,0.00,weatherlink.com 1.10,2013-03-24 13:51:00,
2013-03-24 09:06:00,42.1,30.0,30.10,WNW,299,13.0,16.0,63,0.00,,,0.00,weatherlink.com 1.10,2013-03-24 14:06:00,
2013-03-24 09:21:00,42.8,31.0,30.11,WNW,298,7.0,15.0,63,0.00,,,0.00,weatherlink.com 1.10,2013-03-24 14:21:00,
2013-03-24 09:36:00,43.1,31.0,30.11,WNW,293,7.0,16.0,62,0.00,,,0.00,weatherlink.com 1.10,2013-03-24 14:36:00,
2013-03-24 10:36:00,43.1,30.0,30.14,NW,307,6.0,15.0,60,0.00,,,0.00,weatherlink.com 1.10,2013-03-24 15:36:00,
2013-03-24 11:21:00,44.8,32.0,30.15,West,277,1.0,14.0,62,0.00,,,0.00,weatherlink.com 1.10,2013-03-24 16:21:00,
2013-03-24 11:51:00,46.3,32.0,30.15,West,280,4.0,15.0,58,0.00,,,0.00,weatherlink.com 1.10,2013-03-24 16:51:00,
2013-03-24 12:06:00,46.6,30.0,30.15,NNW,329,9.0,19.0,53,0.00,,,0.00,weatherlink.com 1.10,2013-03-24 17:06:00,
2013-03-24 12:21:00,47.3,31.0,30.15,NW,312,6.0,15.0,53,0.00,,,0.00,weatherlink.com 1.10,2013-03-24 17:21:00,
2013-03-24 12:37:00,48.0,30.0,30.14,NNW,343,10.0,19.0,51,0.00,,,0.00,weatherlink.com 1.10,2013-03-24 17:37:00,
2013-03-24 12:51:00,48.7,31.0,30.14,WNW,289,6.0,15.0,51,0.00,,,0.00,weatherlink.com 1.10,2013-03-24 17:51:00,
2013-03-24 13:06:00,49.0,31.0,30.13,West,267,4.0,14.0,50,0.00,,,0.00,weatherlink.com 1.10,2013-03-24 18:06:00,
2013-03-24 13:21:00,49.5,31.0,30.13,West,259,5.0,13.0,50,0.00,,,0.00,weatherlink.com 1.10,2013-03-24 18:21:00,
2013-03-24 13:36:00,50.2,33.0,30.13,North,4,8.0,14.0,51,0.00,,,0.00,weatherlink.com 1.10,2013-03-24 18:36:00,
2013-03-24 13:51:00,50.8,32.0,30.12,NW,305,4.0,14.0,48,0.00,,,0.00,weatherlink.com 1.10,2013-03-24 18:51:00,
2013-03-24 14:06:00,51.0,32.0,30.11,WNW,283,8.0,15.0,49,0.00,,,0.00,weatherlink.com 1.10,2013-03-24 19:06:00,
2013-03-24 14:21:00,51.6,31.0,30.12,NW,321,5.0,15.0,45,0.00,,,0.00,weatherlink.com 1.10,2013-03-24 19:21:00,
2013-03-24 14:36:00,51.8,31.0,30.11,NW,321,4.0,18.0,45,0.00,,,0.00,weatherlink.com 1.10,2013-03-24 19:36:00,
2013-03-24 14:51:00,52.5,32.0,30.11,NW,304,12.0,14.0,45,0.00,,,0.00,weatherlink.com 1.10,2013-03-24 19:51:00,
2013-03-24 15:06:00,52.5,31.0,30.10,NW,318,5.0,16.0,44,0.00,,,0.00,weatherlink.com 1.10,2013-03-24 20:06:00,
2013-03-24 15:36:00,52.8,32.0,30.09,WSW,243,11.0,13.0,45,0.00,,,0.00,weatherlink.com 1.10,2013-03-24 20:36:00,
2013-03-24 15:51:00,53.0,31.0,30.09,West,278,8.0,14.0,43,0.00,,,0.00,weatherlink.com 1.10,2013-03-24 20:51:00,
2013-03-24 16:06:00,52.9,30.0,30.09,NW,312,6.0,14.0,42,0.00,,,0.00,weatherlink.com 1.10,2013-03-24 21:06:00,
2013-03-24 16:51:00,54.1,32.0,30.07,NW,321,5.0,18.0,44,0.00,,,0.00,weatherlink.com 1.10,2013-03-24 21:51:00,
2013-03-24 17:06:00,53.6,30.0,30.07,North,355,2.0,18.0,41,0.00,,,0.00,weatherlink.com 1.10,2013-03-24 22:06:00,
2013-03-24 17:21:00,53.8,30.0,30.08,NNE,29,5.0,12.0,41,0.00,,,0.00,weatherlink.com 1.10,2013-03-24 22:21:00,
2013-03-24 17:51:00,53.4,30.0,30.08,West,281,4.0,14.0,41,0.00,,,0.00,weatherlink.com 1.10,2013-03-24 22:51:00,
2013-03-24 18:06:00,53.1,30.0,30.07,WNW,291,6.0,12.0,41,0.00,,,0.00,weatherlink.com 1.10,2013-03-24 23:06:00,
2013-03-24 18:21:00,52.7,29.0,30.08,NW,322,4.0,11.0,41,0.00,,,0.00,weatherlink.com 1.10,2013-03-24 23:21:00,
2013-03-24 18:36:00,52.2,30.0,30.08,NW,312,4.0,9.0,43,0.00,,,0.00,weatherlink.com 1.10,2013-03-24 23:36:00,
2013-03-24 18:51:00,51.6,30.0,30.09,NNW,345,5.0,9.0,43,0.00,,,0.00,weatherlink.com 1.10,2013-03-24 23:51:00,
2013-03-24 19:06:00,50.6,29.0,30.09,NNE,20,4.0,11.0,43,0.00,,,0.00,weatherlink.com 1.10,2013-03-25 00:06:00,
2013-03-24 19:21:00,49.7,28.0,30.09,ENE,59,4.0,9.0,43,0.00,,,0.00,weatherlink.com 1.10,2013-03-25 00:21:00,
2013-03-24 19:36:00,48.8,28.0,30.10,West,276,1.0,7.0,45,0.00,,,0.00,weatherlink.com 1.10,2013-03-25 00:36:00,
2013-03-24 19:51:00,47.9,28.0,30.10,NNW,337,1.0,4.0,47,0.00,,,0.00,weatherlink.com 1.10,2013-03-25 00:51:00,
2013-03-24 20:06:00,46.9,28.0,30.11,NW,312,1.0,5.0,49,0.00,,,0.00,weatherlink.com 1.10,2013-03-25 01:06:00,
2013-03-24 20:21:00,45.3,28.0,30.11,NW,319,0.0,1.0,52,0.00,,,0.00,weatherlink.com 1.10,2013-03-25 01:21:00,
2013-03-24 20:36:00,43.9,28.0,30.12,NW,324,0.0,0.0,55,0.00,,,0.00,weatherlink.com 1.10,2013-03-25 01:36:00,
2013-03-24 20:51:00,43.1,29.0,30.12,NW,325,0.0,2.0,57,0.00,,,0.00,weatherlink.com 1.10,2013-03-25 01:51:00,
2013-03-24 21:06:00,41.5,28.0,30.13,NW,324,0.0,0.0,60,0.00,,,0.00,weatherlink.com 1.10,2013-03-25 02:06:00,
2013-03-24 21:21:00,39.6,28.0,30.14,NW,325,0.0,0.0,63,0.00,,,0.00,weatherlink.com 1.10,2013-03-25 02:21:00,
2013-03-24 21:36:00,39.2,29.0,30.14,NW,324,0.0,0.0,67,0.00,,,0.00,weatherlink.com 1.10,2013-03-25 02:36:00,
2013-03-24 21:51:00,37.9,29.0,30.15,NW,324,0.0,0.0,69,0.00,,,0.00,weatherlink.com 1.10,2013-03-25 02:51:00,
2013-03-24 22:07:00,36.8,28.0,30.16,NW,324,0.0,0.0,71,0.00,,,0.00,weatherlink.com 1.10,2013-03-25 03:07:00,
2013-03-24 22:22:00,36.3,28.0,30.16,NW,325,0.0,0.0,72,0.00,,,0.00,weatherlink.com 1.10,2013-03-25 03:22:00,
2013-03-24 22:37:00,36.5,28.0,30.17,NW,324,0.0,0.0,72,0.00,,,0.00,weatherlink.com 1.10,2013-03-25 03:37:00,
2013-03-24 22:52:00,36.5,28.0,30.18,NW,325,0.0,0.0,72,0.00,,,0.00,weatherlink.com 1.10,2013-03-25 03:52:00,
2013-03-24 23:07:00,37.5,28.0,30.18,NW,323,0.0,2.0,69,0.00,,,0.00,weatherlink.com 1.10,2013-03-25 04:07:00,
2013-03-24 23:22:00,38.7,28.0,30.18,WNW,297,0.0,2.0,66,0.00,,,0.00,weatherlink.com 1.10,2013-03-25 04:22:00,
2013-03-24 23:37:00,38.1,28.0,30.19,WNW,297,0.0,1.0,67,0.00,,,0.00,weatherlink.com 1.10,2013-03-25 04:37:00,
2013-03-24 23:52:00,38.5,28.0,30.19,NW,306,0.0,3.0,65,0.00,,,0.00,weatherlink.com 1.10,2013-03-25 04:52:00,